Date String (YYYY-MM-DD hh:mm:ss) UTC,Instrument flags,Ambient pressure (hPa),Sample flow (lpm),Bypass flow (lpm),Sample temperature (°C),Ambient temperature (°C),ASC tube jacket temperature (°C),LED temperature (°C),Box temperature (°C),Sample RH (%),Span deviation,Mass concentration (μg/m³),Mass concentration (μg/m³),Mass concentration (μg/m³)
DateTimeUTC,F1_M11,P_M11,Q1_M11,Q2_M11,T1_M11,T2_M11,T3_M11,T4_M11,T5_M11,U1_M11,ZSPAN_M11,X0_M11,X2_M11,X1_M11
2022-06-16 07:00:00,,0828.1,4.99,0.00,29.6,27.5,00.0,38.5,31.3,10.2,0000.0,0009.90,0003.52,0002.43
2022-06-16 07:01:00,,0828.1,5.00,0.00,29.6,27.6,00.0,38.5,31.3,10.3,0000.0,0009.98,0003.53,0002.44
2022-06-16 07:02:00,,0828.1,5.00,0.00,29.6,27.8,00.0,38.5,31.4,10.4,0000.0,0010.13,0003.52,0002.42
2022-06-16 07:03:00,,0828.1,5.00,0.00,29.6,27.9,00.0,38.5,31.4,10.4,0000.0,0010.73,0003.55,0002.41
2022-06-16 07:04:00,,0828.1,4.99,0.00,29.6,28.0,00.0,38.5,31.4,10.4,0000.0,0010.73,0003.59,0002.40
2022-06-16 07:05:00,,0828.2,4.99,0.00,29.6,28.1,00.0,38.5,31.4,10.4,0000.0,0010.95,0003.61,0002.38
2022-06-16 07:06:00,,0828.2,4.99,0.00,29.6,28.2,00.0,38.5,31.4,10.4,0000.0,0010.73,0003.60,0002.37
2022-06-16 07:07:00,,0828.2,5.00,0.00,29.6,28.3,00.0,38.5,31.5,10.4,0000.0,0010.45,0003.62,0002.35
2022-06-16 07:08:00,,0828.3,5.00,0.00,29.6,28.4,00.0,38.5,31.5,10.5,0000.0,0010.02,0003.61,0002.35
2022-06-16 07:09:00,,0828.3,5.00,0.00,29.6,28.5,00.0,38.5,31.5,10.6,0000.0,0009.80,0003.62,0002.34
2022-06-16 07:10:00,,0828.3,4.99,0.00,29.6,28.5,00.0,38.5,31.5,10.6,0000.0,0009.75,0003.62,0002.33
2022-06-16 07:11:00,,0828.3,4.99,0.00,29.6,28.6,00.0,38.5,31.5,10.6,0000.0,0009.49,0003.58,0002.30
2022-06-16 07:12:00,,0828.3,5.00,0.00,29.7,28.6,00.0,38.5,31.6,10.5,0000.0,0009.40,0003.58,0002.32
2022-06-16 07:13:00,,0828.4,5.00,0.00,29.7,28.6,00.0,38.5,31.6,10.5,0000.0,0009.18,0003.60,0002.33
2022-06-16 07:14:00,,0828.3,5.01,0.00,29.7,28.7,00.0,38.5,31.6,10.5,0000.0,0008.54,0003.56,0002.34
2022-06-16 07:15:00,,0828.4,4.99,0.00,29.7,28.7,00.0,38.5,31.7,10.5,0000.0,0008.24,0003.51,0002.34
2022-06-16 07:16:00,,0828.5,4.99,0.00,29.7,28.7,00.0,38.6,31.7,10.4,0000.0,0007.95,0003.49,0002.36
2022-06-16 07:17:00,,0828.5,5.00,0.00,29.7,28.8,00.0,38.6,31.7,10.3,0000.0,0007.79,0003.49,0002.35
2022-06-16 07:18:00,,0828.5,4.99,0.00,29.8,28.8,00.0,38.6,31.7,10.2,0000.0,0007.59,0003.47,0002.36
2022-06-16 07:19:00,,0828.5,5.00,0.00,29.8,28.8,00.0,38.6,31.7,10.2,0000.0,0007.27,0003.45,0002.36
2022-06-16 07:20:00,,0828.5,5.01,0.00,29.8,28.9,00.0,38.6,31.7,10.1,0000.0,0007.02,0003.40,0002.35
2022-06-16 07:21:00,,0828.4,5.00,0.00,29.8,28.9,00.0,38.6,31.8,10.0,0000.0,0006.94,0003.40,0002.33
2022-06-16 07:22:00,,0828.4,5.00,0.00,29.8,28.9,00.0,38.6,31.7,09.9,0000.0,0006.74,0003.39,0002.34
2022-06-16 07:23:00,,0828.3,4.99,0.00,29.9,28.9,00.0,38.7,31.7,09.7,0000.0,0006.59,0003.37,0002.32
2022-06-16 07:24:00,,0828.3,5.00,0.00,29.9,28.9,00.0,38.7,31.8,09.7,0000.0,0006.39,0003.32,0002.31
2022-06-16 07:25:00,,0828.3,5.01,0.00,29.9,29.0,00.0,38.7,31.8,09.6,0000.0,0006.98,0003.31,0002.30
2022-06-16 07:26:00,,0828.3,5.01,0.00,29.9,29.0,00.0,38.7,31.8,09.6,0000.0,0007.24,0003.34,0002.29
2022-06-16 07:27:00,,0828.3,5.00,0.00,29.9,29.0,00.0,38.7,31.9,09.7,0000.0,0007.55,0003.36,0002.27
2022-06-16 07:28:00,,0828.2,5.00,0.00,29.9,29.0,00.0,38.7,31.9,09.7,0000.0,0007.50,0003.33,0002.26
2022-06-16 07:29:00,,0828.2,5.01,0.00,29.9,29.0,00.0,38.7,31.9,09.8,0000.0,0007.55,0003.30,0002.26
2022-06-16 07:30:00,,0828.2,5.01,0.00,30.0,29.0,00.0,38.8,31.9,09.9,0000.0,0007.77,0003.26,0002.25
2022-06-16 07:31:00,,0828.2,4.98,0.00,30.0,29.1,00.0,38.8,31.9,09.9,0000.0,0007.82,0003.28,0002.26
2022-06-16 07:32:00,,0828.2,5.00,0.00,30.0,29.1,00.0,38.8,31.9,10.0,0000.0,0007.91,0003.28,0002.28
2022-06-16 07:33:00,,0828.2,5.00,0.00,30.0,29.1,00.0,38.8,31.9,10.1,0000.0,0008.09,0003.29,0002.28
2022-06-16 07:34:00,,0828.2,5.01,0.00,30.0,29.1,00.0,38.8,31.9,10.2,0000.0,0008.11,0003.28,0002.28
2022-06-16 07:35:00,,0828.2,5.00,0.00,30.0,29.1,00.0,38.8,32.0,10.2,0000.0,0008.18,0003.30,0002.27
2022-06-16 07:36:00,,0828.2,4.99,0.00,30.0,29.1,00.0,38.8,32.0,10.2,0000.0,0008.02,0003.29,0002.26
2022-06-16 07:37:00,,0828.2,5.00,0.00,30.0,29.1,00.0,38.9,32.0,10.2,0000.0,0007.82,0003.25,0002.26
2022-06-16 07:38:00,,0828.2,4.99,0.00,30.1,29.1,00.0,38.9,32.0,10.1,0000.0,0007.95,0003.26,0002.27
2022-06-16 07:39:00,,0828.2,5.00,0.00,30.1,29.1,00.0,38.9,32.0,10.1,0000.0,0008.34,0003.29,0002.30
2022-06-16 07:40:00,,0828.3,5.01,0.00,30.1,29.1,00.0,38.9,32.0,10.2,0000.0,0008.92,0003.37,0002.31
2022-06-16 07:41:00,,0828.3,5.01,0.00,30.1,29.1,00.0,38.9,32.0,10.2,0000.0,0008.96,0003.46,0002.32
2022-06-16 07:42:00,,0828.3,4.99,0.00,30.1,29.2,00.0,38.9,32.0,10.2,0000.0,0009.06,0003.46,0002.30
2022-06-16 07:43:00,,0828.3,4.99,0.00,30.1,28.7,00.0,38.9,31.9,10.2,0000.0,0008.93,0003.45,0002.30
2022-06-16 07:44:00,,0828.4,5.01,0.00,30.0,27.8,00.0,38.8,31.6,10.3,0000.0,0008.95,0003.45,0002.31
2022-06-16 07:45:00,,0828.3,4.99,0.00,29.9,27.6,00.0,38.8,31.5,10.4,0000.0,0008.93,0003.47,0002.33
2022-06-16 07:46:00,,0828.3,5.00,0.00,29.8,27.5,00.0,38.8,31.5,10.5,0000.0,0008.86,0003.48,0002.35
2022-06-16 07:47:00,,0828.2,5.01,0.00,29.8,27.6,00.0,38.7,31.4,10.6,0000.0,0008.79,0003.52,0002.36
2022-06-16 07:48:00,,0828.2,4.99,0.00,29.7,27.7,00.0,38.7,31.4,10.5,0000.0,0009.07,0003.57,0002.38
2022-06-16 07:49:00,,0828.2,5.01,0.00,29.7,27.8,00.0,38.7,31.5,10.5,0000.0,0008.90,0003.59,0002.38
2022-06-16 07:50:00,,0828.3,5.00,0.00,29.7,27.9,00.0,38.7,31.5,10.5,0000.0,0008.41,0003.57,0002.36
2022-06-16 07:51:00,,0828.2,4.99,0.00,29.7,28.0,00.0,38.7,31.5,10.5,0000.0,0008.05,0003.54,0002.36
2022-06-16 07:52:00,,0828.2,5.00,0.00,29.7,28.1,00.0,38.6,31.5,10.5,0000.0,0008.18,0003.45,0002.34
2022-06-16 07:53:00,,0828.3,5.00,0.00,29.7,28.2,00.0,38.6,31.5,10.4,0000.0,0008.21,0003.47,0002.32
2022-06-16 07:54:00,,0828.3,4.99,0.00,29.7,28.3,00.0,38.6,31.5,10.5,0000.0,0008.28,0003.50,0002.31
2022-06-16 07:55:00,,0828.3,5.00,0.00,29.7,28.4,00.0,38.6,31.5,10.5,0000.0,0008.24,0003.50,0002.29
2022-06-16 07:56:00,,0828.3,5.00,0.00,29.7,28.4,00.0,38.6,31.5,10.5,0000.0,0008.65,0003.52,0002.27
2022-06-16 07:57:00,,0828.3,5.01,0.00,29.7,28.5,00.0,38.6,31.6,10.5,0000.0,0008.96,0003.49,0002.25
2022-06-16 07:58:00,,0828.3,5.01,0.00,29.7,28.5,00.0,38.6,31.6,10.4,0000.0,0009.11,0003.42,0002.24
2022-06-16 07:59:00,,0828.3,5.00,0.00,29.7,28.5,00.0,38.6,31.6,10.3,0000.0,0009.24,0003.39,0002.23
